Location: Assche-ter-Heiden
(50.9174°N, 4.1574°E)
Time: 07:01:25
(UTC+00:00)

FALCON 9 DEB - Pass Details

Date: 20 January 2020
Orbit: 429 x 444 km, 53.0° (Epoch: 24 February)

Event Time Altitude Azimuth Distance (km) Brightness Sun altitude
Exits shadow 06:07:37 25° 292° (WNW) 940 4.2 -13.5°
Maximum altitude 06:09:32 73° 13° (NNE) 468 3.2 -13.2°
Drops below altitude 10° 06:13:03 10° 99° (E) 1,567 7.4 -12.7°
Sets 06:15:11 0° 101° (ESE) 2,437 9.0 -12.4°
